Regional Weather Roundup
Issued by NWS

Home | Current Version | Previous Version | Graphics & Text | Print | Product List | Glossary On
Versions: 1 2 3 4 5 6 7 8 9 10 11 12 13 14 15 16 17 18 19 20 21 22 23 24 25 26 27 28 29 30 31 32 33 34 35 36 37 38 39 40 41 42 43 44 45 46 47 48 49 50
929
ASUS43 KLMK 230810
RWRKY
KENTUCKY REGIONAL WEATHER ROUNDUP
NATIONAL WEATHER SERVICE LOUISVILLE KY
300 AM EST MON JAN 23 2017

NOTE "FAIR" INDICATES FEW OR NO CLOUDS BELOW 12,000 FEET
WITH NO SIGNIFICANT WEATHER AND/OR OBSTRUCTIONS TO VISIBILITY.

KYZ001>023-026-027-061>063-070>075-230900-
WESTERN AND SOUTH CENTRAL KENTUCKY

CITY           SKY/WX    TMP DP  RH WIND       PRES   REMARKS
PADUCAH        CLOUDY    45  37  73 N17G26    29.57R
HENDERSON      CLOUDY    48  41  76 NW15G28   29.52R
OWENSBORO      CLOUDY    51  47  86 NW18G25   29.47R
HOPKINSVILLE   CLOUDY    53  49  86 NW15G22   29.44R
BOWLING GREEN  CLOUDY    58  49  72 N13       29.36R
GLASGOW        LGT RAIN  54  50  87 N14       29.32R
$$

KYZ024-025-028>034-038-045-046-053-230900-
NORTH CENTRAL KENTUCKY

CITY           SKY/WX    TMP DP  RH WIND       PRES   REMARKS
LOUISVILLE/SDF CLOUDY    56  49  77 N18       29.39R
LOUISVILLE/LOU MOCLDY    56  48  74 N9        29.39R
FORT KNOX      CLOUDY    56  49  78 NW10      29.37R
$$

KYZ035>037-039>044-047>052-055>060-089>105-230900-
NORTHEAST KENTUCKY

CITY           SKY/WX    TMP DP  RH WIND       PRES   REMARKS
LEXINGTON      LGT RAIN  53  50  89 N14       29.33S
COVINGTON      CLOUDY    53  48  83 N15       29.40R
FRANKFORT      LGT RAIN  54  48  80 N12G18    29.35R
$$

KYZ054-064>069-076>088-106>120-230900-
SOUTHEAST KENTUCKY

CITY           SKY/WX    TMP DP  RH WIND       PRES   REMARKS
JACKSON        LGT RAIN  52  50  93 NE8       29.28S FOG
LONDON         LGT RAIN  53  50  89 N13       29.25S
SOMERSET       LGT RAIN  52  52 100 N12       29.27S
MIDDLESBORO    RAIN      51  51 100 CALM      29.23S
MONTICELLO     LGT RAIN  54  52  93 N21       29.27R
$$





USA.gov is the U.S. government's official web portal to all federal, state and local government web resources and services.